This is the latest recevied weather packets stored in our database for station/object NC4J. If no packets are shown the sender has not sent any weather packets the latest 10 day(s).
| Time | Temp. | Humidity | Pressure | Rain* | Wind** | Luminosity | Snow |
|---|---|---|---|---|---|---|---|
| 1777953577 | 12.22° C | 71% | 1016.5 hPa | 0 mm | - | 0 W/m² | - |
| 1777953273 | 12.78° C | 69% | 1016.6 hPa | 0 mm | - | 0 W/m² | - |
| 1777952970 | 12.78° C | 68% | 1016.6 hPa | 0 mm | - | 0 W/m² | - |
| 1777952666 | 12.78° C | 67% | 1016.5 hPa | 0 mm | - | 0 W/m² | - |
| 1777952364 | 13.33° C | 63% | 1016.6 hPa | 0 mm | - | 0 W/m² | - |
| 1777952060 | 13.33° C | 64% | 1016.7 hPa | 0 mm | - | 0 W/m² | - |
| 1777951759 | 13.33° C | 64% | 1016.7 hPa | 0 mm | - | 0 W/m² | - |
| 1777951455 | 13.33° C | 64% | 1016.8 hPa | 0 mm | - | 0 W/m² | - |
| 1777951152 | 13.89° C | 63% | 1016.9 hPa | 0 mm | - | 0 W/m² | - |
| 1777950849 | 13.89° C | 62% | 1016.8 hPa | 0 mm | - | 0 W/m² | - |
| 1777950546 | 13.89° C | 62% | 1016.8 hPa | 0 mm | - | 0 W/m² | - |
| 1777950242 | 13.89° C | 61% | 1016.9 hPa | 0 mm | - | 0 W/m² | - |
| 1777949937 | 14.44° C | 62% | 1016.7 hPa | 0 mm | - | 0 W/m² | - |
| 1777949635 | 13.89° C | 60% | 1016.8 hPa | 0 mm | - | 0 W/m² | - |
| 1777949334 | 13.89° C | 60% | 1016.8 hPa | 0 mm | - | 0 W/m² | - |
| 1777949031 | 14.44° C | 61% | 1016.8 hPa | 0 mm | - | 0 W/m² | - |
| 1777948728 | 14.44° C | 60% | 1016.8 hPa | 0 mm | - | 0 W/m² | - |
| 1777948425 | 14.44° C | 60% | 1016.7 hPa | 0 mm | - | 0 W/m² | - |
| 1777948122 | 14.44° C | 58% | 1016.7 hPa | 0 mm | - | 0 W/m² | - |
| 1777947819 | 15° C | 60% | 1016.6 hPa | 0 mm | - | 0 W/m² | - |
| 1777947516 | 15° C | 58% | 1016.6 hPa | 0 mm | - | 0 W/m² | - |
| 1777947212 | 15.56° C | 56% | 1016.5 hPa | 0 mm | - | 0 W/m² | - |
| 1777946908 | 15.56° C | 57% | 1016.5 hPa | 0 mm | - | 0 W/m² | - |
| 1777946604 | 16.11° C | 54% | 1016.6 hPa | 0 mm | - | 0 W/m² | - |
| 1777946301 | 16.11° C | 52% | 1016.6 hPa | 0 mm | - | 0 W/m² | - |
* Rain latest hour (hover to see other rain measurements)
** Current wind speed in m/s (hover to see current wind gust speed)